AirNav   Everest Fuels
 
 1348 users online  

76F Van Zandt County Regional Airport
Wills Point, Texas, USA

GOING TO WILLS POINT?


FAA INFORMATION EFFECTIVE 08 OCTOBER 2020

Location

FAA Identifier: 76F
Lat/Long: 32-40-53.1000N 095-59-02.9000W
32-40.885000N 095-59.048333W
32.6814167,-95.9841389
(estimated)
Elevation: 522 ft. / 159.1 m (surveyed)
Variation: 06E (1985)
From city: 3 miles SE of WILLS POINT, TX
Time zone: UTC -5 (UTC -6 during Standard Time)
Zip code: 75169

Airport Operations

Airport use: Open to the public
Activation date: 08/1966
Control tower: no
ARTCC: FORT WORTH CENTER
FSS: FORT WORTH FLIGHT SERVICE STATION
NOTAMs facility: FTW (NOTAM-D service available)
Attendance: MON-FRI 0800-1700
Wind indicator: lighted
Segmented circle: yes
Beacon: white-green (lighted land airport)
Operates sunset to sunrise.

Airport Communications

CTAF/UNICOM: 122.725
WX ASOS at TRL (14 nm W): 119.275 (972-551-1334)

Nearby radio navigation aids

VOR radial/distance  VOR name  Freq  Var
CQYr016/32.0CEDAR CREEK VORTAC114.8006E
TYRr298/35.3TYLER VOR/DME114.2006E
SLRr208/38.2SULPHUR SPRINGS VOR/DME109.0008E

 
NDB name  Hdg/Dist  Freq  Var  ID
TRAVIS103/14.226006EAVZ .- ...- --..
MESQUITE103/28.624803EPQF .--. --.- ..-.
CROSSROADS350/37.121508ECSZ -.-. ... --..

Airport Services

Fuel available: 100LL
SELF SERVE AVBL 24 HRS.
Parking: tiedowns
Airframe service: MINOR
AIRFRAME & POWER PLANT REPAIRS BY PRIOR ARRANGEMENT, CALL 903-873-3381.
Powerplant service: MINOR
Bottled oxygen: NONE
Bulk oxygen: NONE

Runway Information

Runway 17/35

Dimensions: 3230 x 50 ft. / 985 x 15 m
Surface: asphalt, in excellent condition
Weight bearing capacity: 
Single wheel: 12.0
Runway edge lights: low intensity
RUNWAY 17  RUNWAY 35
Latitude: 32-41.151842N32-40.619055N
Longitude: 095-59.048067W095-59.047215W
Elevation: 522.0 ft.502.0 ft.
Traffic pattern: leftleft
Runway heading: 174 magnetic, 180 true354 magnetic, 360 true
Markings: basic, in good conditionbasic, in good condition
Obstructions: 30 ft. tree, 900 ft. from runway, 175 ft. right of centerline, 23:1 slope to clear17 ft. trees, 483 ft. from runway, 133 ft. right of centerline, 16:1 slope to clear

Airport Ownership and Management from official FAA records

Ownership: Publicly-owned
Owner: CITY OF WILLS POINT
PO BOX 505
WILLS POINT, TX 75169
Phone 903-873-2578
Manager: PAM PEARSON
PO BOX 217
WILLS POINT, TX 75169
Phone 903-873-3381
ARPT PHYSICAL ADDRESS: 36671 STATE HWY 64.

Airport Operational Statistics

Aircraft based on the field: 14
Single engine airplanes: 12
Helicopters: 2
    
Aircraft operations: avg 92/week *
75% local general aviation
25% transient general aviation
* for 12-month period ending 31 December 2018

Additional Remarks

+68 FT ANTENNA 810 FT EAST OF RWY CNTRLN.
FOR CD CTC FORT WORTH ARTCC AT 817-858-7584.
24 HR PILOT ACES TO LOUNGE.

Instrument Procedures

There are no published instrument procedures at 76F.

Some nearby airports with instrument procedures:

KTRL - Terrell Municipal Airport (14 nm W)
KGVT - Majors Airport (24 nm N)
3F9 - Mineola Airport-Wisener Field (24 nm E)
KJDD - Wood County Airport - Collins Field (25 nm E)
7F3 - Caddo Mills Municipal Airport (25 nm NW)
 
Loc | Ops | Rwys | IFR | FBO | Links
Com | Nav | Svcs | Stats | Notes

City of Fort Worth
 
Area around 76F (Van Zandt County Regional Airport)
 
Road maps at: MapQuest Bing Google
 
Aerial photo
WARNING: Photo may not be current or correct
Aerial photo of 76F (Van Zandt County Regional Airport)
Photo by Dwayne Wilson
Photo taken 17-Dec-2017
looking south.

Do you have a better or more recent aerial photo of Van Zandt County Regional Airport that you would like to share? If so, please send us your photo.

 
Sectional chart

 
Airport distance calculator
Flying to Van Zandt County Regional Airport? Find the distance to fly.

From to 76F

Sunrise and sunset
Times for 29-Oct-2020
 Local
(UTC-5)
 Zulu
(UTC)
Morning civil twilight07:1612:16
Sunrise07:4112:41
Sunset18:3423:34
Evening civil twilight19:0024:00

Current date and time
Zulu (UTC)  29-Oct-2020 21:25:12
Local (UTC-5)  29-Oct-2020 16:25:12
 
METAR
KTRL 
14nm W 
292053Z AUTO 29006KT 10SM OVC033 13/07 A3010 RMK AO2 SLP193 T01280067 53001
KGVT 
23nm N 
292055Z AUTO 34010G14KT 10SM OVC032 15/07 A3009 RMK AO2
KJDD 
25nm E 
292055Z AUTO 34007KT 10SM OVC026 11/06 A3009 RMK AO2
KF46 
27nm NW 
292055Z AUTO 36009KT 10SM OVC035 14/07 A3010 RMK AO2 T01400070
KHQZ 
28nm W 
292050Z 29012G19KT 10SM BKN034 14/07 A3010
TAF
KTYR 
35nm SE 
291739Z 2918/3018 28011KT P6SM OVC015 FM292200 33012KT P6SM BKN025 FM300100 34005KT P6SM FEW060 FM301500 05007KT P6SM SKC
NOTAMs
Click for the latest NOTAMs
NOTAMs are issued by the DoD/FAA and will open in a separate window not controlled by AirNav.

 

 
 

FBO, Fuel Providers, and Aircraft Ground Support

  
 Business Name 
 
 Contact 
 
 Services / Description 
 
Fuel Prices
 
Comments
  
Van Zandt County Regional Airport 903-873-3381
214-803-5621
[web site]
[email]
Aviation fuel, Aircraft parking (ramp or tiedown), Passenger terminal and lounge, Flight training, Courtesy transportation, Pilots lounge / snooze room, ...

More info about Van Zandt County Regional Airport
Avfuel
100LL
SS $3.25 
 Updated 03-Jun-2020
 
   2 read write
SS=Self service
Update Fuel Prices
 

Would you like to see your business listed on this page?

 If your business provides an interesting product or service to pilots, flight crews, aircraft, or users of the Van Zandt County Regional Airport, you should consider listing it here.  To start the listing process, click on the button below
 
Add a business
 

Other Pages about Van Zandt County Regional Airport

Update a link
 
Copyright © AirNav, LLC. All rights reserved. Privacy Policy  Contact